Weather History for Kerrville, TX

Change the Weather History Date:

Friday, August 30, 2013

  Actual Average (KHDO) Record (KHDO)
Temperature  
Mean Temperature 84 °F -  
Max Temperature 99 °F 91 °F 104 °F (2011)
Min Temperature 68 °F 69 °F 66 °F (2004)
Cooling Degree Days 18    
Growing Degree Days 34 (Base 50)    
Moisture  
Dew Point 61 °F    
Average Humidity 51    
Maximum Humidity 86    
Minimum Humidity 23    
Precipitation  
Precipitation 0.00 in - - ()
Sea Level Pressure  
Sea Level Pressure 30.03 in    
Wind  
Wind Speed 1 mph (SSE)    
Max Wind Speed 8 mph    
Max Gust Speed -    
Visibility 10 miles    
Events      
Averages and records for this station are not official NWS values.
T = Trace of Precipitation, MM = Missing Value Source: NWS Daily Summary

Daily Weather History Graph

Daily Weather History Graph

Search for Another Location

Airport:

Trip Planner

Search our weather history database for the weather conditions in past years. The results will help you decide how hot, cold, wet, or windy it might be!

Date:

Astronomy

Aug. 30, 2013 Rise Set
Actual Time 7:12 AM CDT 8:00 PM CDT
Civil Twilight 6:48 AM CDT 8:25 PM CDT
Nautical Twilight 6:19 AM CDT 8:53 PM CDT
Astronomical Twilight 5:49 AM CDT 9:23 PM CDT
Moon 2:05 AM CDT (8/30) 4:05 PM CDT (8/30)
Length of Visible Light 13h 37m
Length of Day
12h 48m
Waning Crescent, 29% of the Moon is Illuminated
Aug 30
Waning Crescent
Sep 5
New
Sep 12
First Quarter
Sep 19
Full
Sep 26
Last Quarter

Hourly Weather History & Observations

Time (CDT) Temp. Heat Index Dew Point Humidity Pressure Visibility Wind Dir Wind Speed Gust Speed Precip Events Conditions
12:15 AM 73.9 °F - 63.5 °F 70% 30.06 in 10.0 mi Calm Calm - N/A   Clear
12:35 AM 73.9 °F - 63.5 °F 70% 30.06 in 10.0 mi Calm Calm - N/A   Clear
12:55 AM 73.9 °F - 64.0 °F 71% 30.07 in 10.0 mi Calm Calm - N/A   Clear
1:15 AM 73.9 °F - 64.0 °F 71% 30.07 in 10.0 mi Calm Calm - N/A   Clear
1:35 AM 73.9 °F - 63.3 °F 69% 30.07 in 10.0 mi Calm Calm - N/A   Clear
1:55 AM 73.9 °F - 62.8 °F 68% 30.07 in 10.0 mi Calm Calm - N/A   Clear
2:15 AM 76.5 °F - 63.3 °F 64% 30.06 in 10.0 mi Calm Calm - N/A   Clear
2:35 AM 73.0 °F - 63.9 °F 73% 30.07 in 10.0 mi Calm Calm - N/A   Clear
2:55 AM 73.9 °F - 64.2 °F 72% 30.06 in 10.0 mi Calm Calm - N/A   Clear
3:15 AM 73.9 °F - 64.4 °F 72% 30.06 in 10.0 mi Calm Calm - N/A   Clear
3:35 AM 73.8 °F - 64.4 °F 72% 30.06 in 10.0 mi Calm Calm - N/A   Clear
3:55 AM 73.9 °F - 63.5 °F 70% 30.06 in 10.0 mi Calm Calm - N/A   Clear
4:15 AM 73.9 °F - 63.9 °F 71% 30.06 in 10.0 mi Calm Calm - N/A   Clear
4:35 AM 72.0 °F - 63.5 °F 75% 30.05 in 10.0 mi Calm Calm - N/A   Clear
4:55 AM 71.6 °F - 64.2 °F 77% 30.05 in 10.0 mi Calm Calm - N/A   Clear
5:15 AM 69.8 °F - 64.8 °F 84% 30.06 in 10.0 mi Calm Calm - N/A   Clear
5:35 AM 69.8 °F - 64.8 °F 84% 30.06 in 10.0 mi Calm Calm - N/A   Clear
5:55 AM 68.9 °F - 64.2 °F 85% 30.06 in 10.0 mi Calm Calm - N/A   Clear
6:15 AM 68.9 °F - 63.9 °F 84% 30.07 in 10.0 mi Calm Calm - N/A   Clear
6:35 AM 68.9 °F - 63.9 °F 84% 30.07 in 10.0 mi Calm Calm - N/A   Clear
6:55 AM 68.9 °F - 64.2 °F 85% 30.07 in 10.0 mi Calm Calm - N/A   Clear
7:15 AM 68.9 °F - 64.4 °F 86% 30.08 in 10.0 mi Calm Calm - N/A   Clear
7:35 AM 68.9 °F - 64.6 °F 86% 30.08 in 10.0 mi Calm Calm - N/A   Clear
7:55 AM 68.9 °F - 64.6 °F 86% 30.08 in 10.0 mi Calm Calm - N/A   Clear
8:55 AM 75.2 °F - 65.1 °F 71% 30.09 in 10.0 mi Calm Calm - N/A   Clear
9:15 AM 76.6 °F - 64.8 °F 67% 30.10 in 10.0 mi Calm Calm - N/A   Clear
9:35 AM 79.0 °F - 65.8 °F 64% 30.10 in 10.0 mi Calm Calm - N/A   Clear
9:55 AM 81.5 °F 83.7 °F 66.6 °F 60% 30.10 in 10.0 mi Calm Calm - N/A   Clear
10:15 AM 83.5 °F 85.3 °F 65.3 °F 54% 30.10 in 10.0 mi South 4.6 mph - N/A   Clear
10:35 AM 86.2 °F 87.3 °F 63.9 °F 47% 30.10 in 10.0 mi WSW 6.9 mph - N/A   Clear
10:55 AM 88.9 °F 89.1 °F 61.7 °F 40% 30.09 in 10.0 mi SW 4.6 mph - N/A   Clear
11:15 AM 90.5 °F 90.4 °F 61.2 °F 37% 30.09 in 10.0 mi SSW 4.6 mph - N/A   Clear
11:35 AM 91.6 °F 91.6 °F 60.8 °F 36% 30.09 in 10.0 mi SSW 4.6 mph - N/A   Clear
11:55 AM 91.6 °F 91.0 °F 59.5 °F 34% 30.08 in 10.0 mi Calm Calm - N/A   Clear
12:15 PM 91.6 °F 91.6 °F 60.8 °F 36% 30.08 in 10.0 mi South 5.8 mph - N/A   Clear
12:35 PM 91.6 °F 91.3 °F 60.1 °F 35% 30.07 in 10.0 mi Calm Calm - N/A   Clear
12:55 PM 91.6 °F 91.3 °F 60.3 °F 35% 30.06 in 10.0 mi NNW 5.8 mph - N/A   Clear
1:15 PM 91.6 °F 91.0 °F 59.9 °F 34% 30.05 in 10.0 mi NNE 3.5 mph - N/A   Clear
1:35 PM 92.5 °F 91.6 °F 59.0 °F 32% 30.04 in 10.0 mi East 3.5 mph - N/A   Clear
1:55 PM 93.7 °F 93.0 °F 59.0 °F 31% 30.03 in 10.0 mi SE 3.5 mph - N/A   Clear
2:15 PM 96.8 °F 95.8 °F 57.7 °F 27% 30.02 in 10.0 mi ESE 6.9 mph - N/A   Clear
2:35 PM 96.8 °F 95.5 °F 56.7 °F 26% 30.02 in 10.0 mi East 5.8 mph - N/A   Clear
2:55 PM 96.8 °F 95.5 °F 57.0 °F 26% 30.01 in 10.0 mi NE 5.8 mph - N/A   Clear
3:15 PM 96.8 °F 95.1 °F 55.6 °F 25% 30.00 in 10.0 mi South 4.6 mph - N/A   Clear
3:35 PM 97.9 °F 96.2 °F 55.8 °F 24% 29.99 in 10.0 mi Calm Calm - N/A   Clear
3:55 PM 96.8 °F 95.1 °F 55.6 °F 25% 29.98 in 10.0 mi ESE 3.5 mph - N/A   Clear
4:15 PM 96.4 °F 95.0 °F 56.1 °F 26% 29.97 in 10.0 mi SE 8.1 mph - N/A   Clear
4:35 PM 97.5 °F 95.7 °F 54.7 °F 24% 29.96 in 10.0 mi SW 4.6 mph - N/A   Clear
4:55 PM 99.1 °F 97.5 °F 54.9 °F 23% 29.96 in 10.0 mi SW 3.5 mph - N/A   Clear
5:15 PM 96.8 °F 95.5 °F 56.1 °F 26% 29.95 in 10.0 mi East 4.6 mph - N/A   Clear
5:35 PM 96.6 °F 95.6 °F 57.0 °F 27% 29.95 in 10.0 mi ESE 5.8 mph - N/A   Clear
5:55 PM 96.8 °F 95.1 °F 55.6 °F 25% 29.95 in 10.0 mi South 4.6 mph - N/A   Clear
6:15 PM 96.8 °F 95.5 °F 57.0 °F 26% 29.95 in 10.0 mi SE 8.1 mph - N/A   Clear
6:35 PM 95.5 °F 94.1 °F 56.8 °F 27% 29.95 in 10.0 mi SSE 4.6 mph - N/A   Clear
6:55 PM 94.1 °F 92.5 °F 56.1 °F 28% 29.95 in 10.0 mi SSE 4.6 mph - N/A   Clear
7:15 PM 94.1 °F 92.8 °F 57.6 °F 29% 29.95 in 10.0 mi South 5.8 mph - N/A   Clear
7:35 PM 92.8 °F 92.1 °F 58.8 °F 32% 29.95 in 10.0 mi South 8.1 mph - N/A   Clear
7:55 PM 91.6 °F 91.3 °F 60.1 °F 35% 29.95 in 10.0 mi South 5.8 mph - N/A   Clear
8:15 PM 89.1 °F 88.8 °F 60.1 °F 38% 29.95 in 10.0 mi SSE 3.5 mph - N/A   Clear
8:35 PM 89.1 °F 89.0 °F 61.0 °F 39% 29.96 in 10.0 mi Calm Calm - N/A   Clear
8:55 PM 87.8 °F 87.6 °F 60.8 °F 40% 29.96 in 10.0 mi ESE 3.5 mph - N/A   Clear
9:15 PM 86.0 °F 85.7 °F 60.1 °F 41% 29.96 in 10.0 mi Calm Calm - N/A   Clear
9:35 PM 84.2 °F 84.4 °F 61.0 °F 45% 29.96 in 10.0 mi Calm Calm - N/A   Clear
9:55 PM 84.2 °F 84.4 °F 60.8 °F 45% 29.97 in 10.0 mi ESE 3.5 mph - N/A   Clear
10:15 PM 84.0 °F 84.4 °F 61.0 °F 46% 29.97 in 10.0 mi Calm Calm - N/A   Clear
10:35 PM 84.2 °F 84.6 °F 61.2 °F 46% 29.97 in 10.0 mi ESE 3.5 mph - N/A   Clear
10:55 PM 83.5 °F 83.7 °F 61.0 °F 46% 29.97 in 10.0 mi Calm Calm - N/A   Clear
11:15 PM 82.9 °F 83.3 °F 61.0 °F 47% 29.98 in 10.0 mi ESE 3.5 mph - N/A   Clear
11:35 PM 82.2 °F 83.0 °F 62.1 °F 50% 29.97 in 10.0 mi SE 4.6 mph - N/A   Clear
11:55 PM 81.5 °F 82.7 °F 62.8 °F 53% 29.97 in 10.0 mi SE 3.5 mph - N/A   Clear